PROFILE

 METAR AND TAF INFORMATION
ADDS - METARS form results

(2234 UTC 10 December 2018)
http://aviationweather.gov/metar/data/
 
FMEE 102200Z AUTO 11008KT CAVOK 25/20 Q1014 TEMPO 4500 SHRA BKN015CB
TAF FMEE 101700Z 1018/1124 12012KT 9999 SCT035 PROB30 TEMPO 1021/1102 4500 SHRA BKN015CB BECMG 1104/1106 06012KT BECMG 1116/1118 14012KT 

 AIRPORT MAP

 RUNWAY INFORMATION
Runway 12 Runway length 10499 ft Runway width 148 ft
Runway elevation 38 ft Runway displaced threshold 398 ft Runway heading 102
Runway 30 Runway length 10499 ft Runway width 148 ft
Runway elevation 31 ft Runway displaced threshold 0 ft Runway heading 282
Runway 14 Runway length 8760 ft Runway width 148 ft
Runway elevation 27 ft Runway displaced threshold 328 ft Runway heading 116
Runway 32 Runway length 8760 ft Runway width 148 ft
Runway elevation 65 ft Runway displaced threshold 1165 ft Runway heading 296

 AIRPORT FREQUENCIES
Type A/G Name GILLOT RDO Frequency 347.6 MHZ
Type APP Name GILLOT APP Frequency 119.4 MHZ
Type ATIS Name ATIS Frequency 126.8 MHZ
Type GND Name GILLOT GND Frequency 121.9 MHZ
Type TWR Name GILLOT TWR Frequency 118.4 MHZ

 AIRPORT NEAR NAVIGATION AIDS
Type NDB Name St Denis Gillot Frequency 382 KHZ
Type VOR-DME Name St Denis Gillot Frequency 112900 KHZ